COSMOS 1275 DEB, 18637

Orbit data source: Space-Track

COSMOS 1275 DEB, 18637 is space debris in LEO originally from a launch on Thu, 04 Jun 1981 UTC launched from the Plesetsk Missile And Space Complex (PKMTR). Debris objects in space refer to the collection of defunct objects orbiting the Earth. Examples of debris include non-operational satellites, rocket bodies, and fragments generated from explosions, collisions, or faulty payload assembly.

Loading next visibility...
Identifier
18637, 1981-053LX
Orbit
LEO
Country
Flag of CISCIS
Related business
Manufacturer
Unknown
Mission
Spacecraft
Bus & Motor
Unknown
Mass
Unknown
Launch date (UTC)
1981-06-04 (45 years ago)
Launch vehicle
Unknown
Launch site
Plesetsk Missile And Space Complex (PKMTR)
Object type
Payload
Rocket body
Debris
Shape & HBR
Unknown shape, 0.1 m
Radar Cross Section
Medium (>0.1 m² and <1 m²)

Expand to show TLE details & history
Last TLE update: 2 days ago

TLE from 2 days ago
0 COSMOS 1275 DEB
1 18637U 81053LX  26207.49304632  .00003026  00000-0  12358-2 0  9992
2 18637  82.9594 233.0094 0047666  14.5009 345.7531 14.26460534102818
Epoch: 2026-07-26T11:49Z
TLE epoch observation values (Epoch: 2026-07-26T11:49:59.202Z)
Latitude
0.00007°
Longitude
111.32255°
Altitude
773.382 km
Speed
7.485 km/s
True Right ascension
15h 32m 02s
True Declination
0° 00' 00"
Sunlit
Object was in daylight at epoch
Visualization orbit readout
Latitude
Unknown
Longitude
Unknown
Altitude
Unknown
Speed
Unknown
Apparent Right ascension
Unknown
Apparent Declination
Unknown
Sunlit
N/A
Visualization observer readout
Local Sidereal Time
09:28:02
Azimuth
Unknown
Elevation
Unknown
Doppler factor
Unknown
Orbital elements
Apogee altitude
834.882 km
Perigee altitude
766.445 km
Semi-major axis
7,178.8 km
Eccentricity
0.00477
Inclination
82.9594°
RAAN
233.0094°
Arg. of periapsis
14.5009°
True anomaly
345.6179°
Mean anomaly
345.7531°
Eccentric anomaly
345.68558°
Mean motion
3.56833 °/min
Orbital period
100.89 mins
BSTAR
0.0012358
Loading maneuver chart data...
Computing Atmospheric mass density...
Loading historical data...
Loading historical data...
Loading historical data...
Loading historical data...
Loading historical data...
Loading historical data...
Loading historical data...

Documentation

Showing up to 5 results
|